Weather History for KLYV - September, 2013

Change the Weather History Date:

Thursday, September 19, 2013

  Actual Average (KFSD) Record (KFSD)
Temperature  
Mean Temperature 65 °F 60 °F  
Max Temperature 77 °F 72 °F 100 °F (1895)
Min Temperature 51 °F 48 °F 27 °F (1991)
Degree Days  
Heating Degree Days 0 7  
Month to date heating degree days 76  
Since 1 July heating degree days 107  
Cooling Degree Days 0 1  
Month to date cooling degree days 52  
Year to date cooling degree days 677  
Growing Degree Days 15 (Base 50)    
Moisture  
Dew Point 58 °F    
Average Humidity 74    
Maximum Humidity 94    
Minimum Humidity 36    
Precipitation  
Precipitation 0.26 in 0.09 in 1.90 in (1923)
Month to date precipitation 1.79  
Year to date precipitation 21.18  
Snow  
Snow 0.00 in 0.00 in 0.00 in ()
Month to date snowfall 0.0  
Since 1 July snowfall 0.0  
Since 1 September snowfall 0.0  
Snow Depth -    
Sea Level Pressure  
Sea Level Pressure 29.79 in    
Wind  
Wind Speed 6 mph (NW)    
Max Wind Speed 24 mph    
Max Gust Speed 34 mph    
Visibility 10 miles    
Events Rain , Thunderstorm    
T = Trace of Precipitation, MM = Missing Value Source: NWS Daily Summary

Daily Weather History Graph

Daily Weather History Graph

Search for Another Location

Airport or City:

Trip Planner

Search our weather history database for the weather conditions in past years. The results will help you decide how hot, cold, wet, or windy it might be!

Date:

Astronomy

Sep. 19, 2013 Rise Set
Actual Time 7:09 AM CDT 7:27 PM CDT
Civil Twilight 6:40 AM CDT 7:55 PM CDT
Nautical Twilight 6:06 AM CDT 8:29 PM CDT
Astronomical Twilight 5:31 AM CDT 9:04 PM CDT
Moon 7:23 PM CDT (9/19) 7:21 AM CDT (9/19)
Length of Visible Light 13h 15m
Length of Day
12h 18m
Full, 100% of the Moon is Illuminated
Sep 19
Full
Sep 26
Last Quarter
Oct 4
New
Oct 11
First Quarter
Oct 18
Full

Hourly Weather History & Observations

Time (CDT) Temp. Dew Point Humidity Pressure Visibility Wind Dir Wind Speed Gust Speed Precip Events Conditions
12:13 AM 71.6 °F 66.2 °F 83% 29.66 in 10.0 mi SSE 3.5 mph - N/A   Clear
12:33 AM 69.8 °F 66.2 °F 88% 29.65 in 10.0 mi SSE 6.9 mph - N/A   Clear
12:53 AM 69.8 °F 66.2 °F 88% 29.66 in 10.0 mi Calm Calm - N/A   Clear
1:13 AM 69.8 °F 64.4 °F 83% 29.66 in 10.0 mi Calm Calm - N/A   Clear
1:33 AM 69.8 °F 64.4 °F 83% 29.66 in 10.0 mi Calm Calm - N/A   Clear
1:53 AM 69.8 °F 66.2 °F 88% 29.66 in 10.0 mi SSE 5.8 mph - N/A   Clear
2:13 AM 69.8 °F 64.4 °F 83% 29.66 in 10.0 mi South 5.8 mph - N/A   Clear
2:33 AM 69.8 °F 66.2 °F 88% 29.66 in 10.0 mi SSE 4.6 mph - N/A   Clear
2:53 AM 69.8 °F 64.4 °F 83% 29.66 in 10.0 mi SSE 3.5 mph - N/A   Clear
3:13 AM 69.8 °F 64.4 °F 83% 29.67 in 10.0 mi NNE 3.5 mph - N/A   Clear
3:32 AM 69.8 °F 64.4 °F 83% 29.67 in 10.0 mi Calm Calm - N/A   Clear
3:53 AM 69.8 °F 64.4 °F 83% 29.66 in 10.0 mi NNW 3.5 mph - N/A   Clear
4:13 AM 69.8 °F 64.4 °F 83% 29.64 in 10.0 mi SE 4.6 mph - N/A   Clear
4:32 AM 69.8 °F 64.4 °F 83% 29.64 in 10.0 mi Calm Calm - N/A   Clear
4:53 AM 68.0 °F 62.6 °F 83% 29.64 in 10.0 mi NE 3.5 mph - N/A   Clear
5:13 AM 66.2 °F 62.6 °F 88% 29.65 in 10.0 mi Calm Calm - N/A   Clear
5:32 AM 66.2 °F 62.6 °F 88% 29.66 in 10.0 mi Calm Calm - N/A   Clear
5:53 AM 66.2 °F 62.6 °F 88% 29.66 in 10.0 mi NNE 3.5 mph - N/A Thunderstorm Clear
6:13 AM 68.0 °F 62.6 °F 83% 29.66 in 10.0 mi Calm Calm - N/A   Clear
6:32 AM 64.4 °F 62.6 °F 94% 29.64 in 10.0 mi Calm Calm - N/A   Scattered Clouds
6:53 AM 64.4 °F 62.6 °F 94% 29.68 in 7.0 mi WSW 5.8 mph - N/A   Mostly Cloudy
7:12 AM 69.8 °F 64.4 °F 83% 29.72 in 10.0 mi WNW 24.2 mph 34.5 mph N/A Thunderstorm Thunderstorm
7:33 AM 68.0 °F 62.6 °F 83% 29.65 in 2.5 mi NNE 9.2 mph 17.3 mph 0.25 in Rain , Thunderstorm Heavy Thunderstorms and Rain
7:53 AM 66.2 °F 62.6 °F 88% 29.68 in 10.0 mi North 13.8 mph - 0.26 in Rain Light Rain
8:13 AM 68.0 °F 62.6 °F 83% 29.70 in 10.0 mi NNW 6.9 mph - N/A   Mostly Cloudy
8:33 AM 68.0 °F 62.6 °F 83% 29.72 in 10.0 mi WNW 9.2 mph - N/A Rain Light Rain
8:52 AM 66.2 °F 62.6 °F 88% 29.73 in 10.0 mi WNW 6.9 mph - N/A   Scattered Clouds
9:13 AM 68.0 °F 62.6 °F 83% 29.73 in 10.0 mi West 8.1 mph - N/A   Clear
9:33 AM - - N/A% - - North - - N/A   Unknown
9:53 AM - - N/A% - - North - - N/A   Unknown
10:13 AM 69.8 °F 62.6 °F 78% 29.77 in 10.0 mi Calm Calm - N/A   Clear
10:32 AM 69.8 °F 62.6 °F 78% 29.81 in 10.0 mi Calm Calm - N/A   Scattered Clouds
10:53 AM 69.8 °F 62.6 °F 78% 29.81 in 10.0 mi WNW 3.5 mph - N/A   Overcast
11:13 AM 69.8 °F 62.6 °F 78% 29.81 in 10.0 mi NW 6.9 mph - N/A   Mostly Cloudy
11:32 AM 71.6 °F 62.6 °F 73% 29.80 in 10.0 mi North 8.1 mph - N/A   Scattered Clouds
11:53 AM 71.6 °F 62.6 °F 73% 29.83 in 10.0 mi NW 6.9 mph - N/A   Scattered Clouds
12:13 PM 71.6 °F 62.6 °F 73% 29.83 in 10.0 mi NW 8.1 mph - N/A   Scattered Clouds
12:32 PM 71.6 °F 62.6 °F 73% 29.85 in 10.0 mi NW 13.8 mph - N/A   Mostly Cloudy
12:53 PM 69.8 °F 60.8 °F 73% 29.85 in 10.0 mi NW 9.2 mph - N/A   Overcast
1:13 PM 69.8 °F 60.8 °F 73% 29.85 in 10.0 mi NW 10.4 mph - N/A   Scattered Clouds
1:32 PM 69.8 °F 60.8 °F 73% 29.85 in 10.0 mi NNW 10.4 mph 17.3 mph N/A   Clear
1:53 PM 69.8 °F 59.0 °F 68% 29.86 in 10.0 mi NW 10.4 mph - N/A   Scattered Clouds
2:13 PM 71.6 °F 59.0 °F 64% 29.85 in 10.0 mi NNW 8.1 mph - N/A   Mostly Cloudy
2:32 PM 73.4 °F 59.0 °F 61% 29.85 in 10.0 mi NW 12.7 mph 17.3 mph N/A   Scattered Clouds
2:53 PM 73.4 °F 57.2 °F 57% 29.83 in 10.0 mi NW 9.2 mph - N/A   Clear
3:13 PM 77.0 °F 55.4 °F 47% 29.83 in 10.0 mi NNW 13.8 mph 20.7 mph N/A   Clear
3:32 PM 77.0 °F 53.6 °F 44% 29.83 in 10.0 mi NNW 16.1 mph 21.9 mph N/A   Clear
3:53 PM 75.2 °F 50.0 °F 41% 29.85 in 10.0 mi NW 17.3 mph 20.7 mph N/A   Scattered Clouds
4:13 PM 77.0 °F 51.8 °F 41% 29.85 in 10.0 mi WNW 21.9 mph 26.5 mph N/A   Mostly Cloudy
4:32 PM 73.4 °F 50.0 °F 44% 29.87 in 10.0 mi WNW 18.4 mph 29.9 mph N/A   Mostly Cloudy
4:53 PM 73.4 °F 48.2 °F 41% 29.87 in 10.0 mi NW 20.7 mph 29.9 mph N/A   Scattered Clouds
5:13 PM 73.4 °F 44.6 °F 36% 29.88 in 10.0 mi NW 21.9 mph 31.1 mph N/A   Scattered Clouds
5:33 PM 71.6 °F 46.4 °F 41% 29.89 in 10.0 mi WNW 16.1 mph 34.5 mph N/A   Mostly Cloudy
5:53 PM 69.8 °F 46.4 °F 43% 29.89 in 10.0 mi NW 15.0 mph 28.8 mph N/A   Mostly Cloudy
6:13 PM 68.0 °F 46.4 °F 46% 29.88 in 10.0 mi WNW 19.6 mph 28.8 mph N/A   Scattered Clouds
6:33 PM 68.0 °F 46.4 °F 46% 29.88 in 10.0 mi NW 15.0 mph 23.0 mph N/A   Clear
6:53 PM 64.4 °F 46.4 °F 52% 29.88 in 10.0 mi NNW 10.4 mph - N/A   Clear
7:13 PM 64.4 °F 46.4 °F 52% 29.89 in 10.0 mi NW 10.4 mph 16.1 mph N/A   Scattered Clouds
7:33 PM 62.6 °F 48.2 °F 59% 29.90 in 10.0 mi NW 10.4 mph - N/A Rain Light Rain
7:52 PM 59.0 °F 51.8 °F 77% 29.90 in 10.0 mi NW 12.7 mph 17.3 mph N/A Rain Light Rain
8:13 PM 59.0 °F 53.6 °F 82% 29.90 in 10.0 mi NW 9.2 mph - N/A   Overcast
8:33 PM 59.0 °F 51.8 °F 77% 29.91 in 10.0 mi NW 6.9 mph - N/A   Mostly Cloudy
8:52 PM 59.0 °F 53.6 °F 82% 29.92 in 10.0 mi WNW 5.8 mph - N/A   Mostly Cloudy
9:13 PM 57.2 °F 51.8 °F 82% 29.92 in 10.0 mi NW 6.9 mph - N/A   Mostly Cloudy
9:33 PM 57.2 °F 51.8 °F 82% 29.93 in 10.0 mi NW 6.9 mph - N/A   Scattered Clouds
9:52 PM 55.4 °F 51.8 °F 88% 29.93 in 10.0 mi WNW 5.8 mph - N/A   Clear
10:13 PM 55.4 °F 50.0 °F 82% 29.95 in 10.0 mi WNW 8.1 mph - N/A   Clear
10:33 PM 55.4 °F 50.0 °F 82% 29.96 in 10.0 mi WNW 9.2 mph - N/A   Clear
10:52 PM 55.4 °F 50.0 °F 82% 29.96 in 10.0 mi NW 6.9 mph - N/A   Clear
11:13 PM 53.6 °F 50.0 °F 88% 29.97 in 10.0 mi WNW 6.9 mph - N/A   Clear
11:32 PM 53.6 °F 48.2 °F 82% 29.98 in 10.0 mi WNW 4.6 mph - N/A   Clear
11:53 PM 51.8 °F 48.2 °F 88% 29.97 in 10.0 mi WNW 6.9 mph - N/A   Clear